Home > Time Zones > World Clock > Weather > U.S.A. > Knox > Past weeks

Flag for U.S.A. Weather past 2 weeks in Knox, Indiana, U.S.A.

Now
79 °F

Sunny.


Feels Like: 80 °F
Forecast: 64 / 83 °F
Wind: 3 mph from South

Location: Porter County Municipal Airport

Current Time: Jul 5, 2015 at 8:14:31 PM

Latest Report: Jul 5, 2015 at 6:56 PM


Visibility: 10 mi

Pressure: 30.03 "Hg

Humidity: 54%

Dew point: 61 °F

Location of KnoxLocation

Historic Weather in Knox — Graph

°F

Knox temperature yesterday

Maximum temperature yesterday: 80 °F (at 3:56 PM)
Minimum temperature yesterday: 56 °F (at 1:56 AM)
Average temperature yesterday: 68 °F

Past Weeks' High & Low Weather Summary

 TemperatureHumidityPressure
High84 °F (Jun 21, 2:56 PM)100% (Jun 30, 2:56 AM)30.17 "Hg (Jun 30, 2:56 AM)
Low53 °F (Jun 28, 5:56 AM)40% (Jun 23, 3:56 PM)29.72 "Hg (Jun 22, 10:56 PM)
Average68 °F76%29.94 "Hg
* Reported Jun 20 6:56 PM — Jul 5 6:56 PM, Knox, Weather by CustomWeather, © 2015

Note: Actual official high and low records may vary slightly from our data, if they occured in-between our weather recording intervals... More about our weather records

Advertising

Knox weather history for previous 24 hours

 ConditionsComfort  
Time TempWeatherWind HumidityBarometerVisibility
6:56 PM
Sun, Jul 5
79 °FSunny.3 mph54%30.03 "Hg10 mi
5:56 PM81 °FSunny.6 mph49%30.04 "Hg10 mi
4:56 PM82 °FSunny.6 mph48%30.05 "Hg10 mi
3:56 PM82 °FSunny.6 mph46%30.06 "Hg10 mi
2:56 PM82 °FPassing clouds.No wind46%30.07 "Hg10 mi
1:56 PM81 °FPassing clouds.3 mph49%30.07 "Hg10 mi
12:56 PM80 °FSunny.5 mph52%30.09 "Hg10 mi
11:56 AM79 °FPassing clouds.3 mph52%30.09 "Hg10 mi
10:56 AM78 °FSunny.5 mph58%30.09 "Hg10 mi
9:56 AM76 °FSunny.6 mph64%30.10 "Hg10 mi
8:56 AM72 °FSunny.3 mph73%30.11 "Hg9 mi
7:56 AM68 °FSunny.No wind82%30.10 "Hg6 mi
6:56 AM62 °FFog.No wind96%30.09 "Hg2 mi
5:56 AM58 °FFog.No wind97%30.08 "Hg1 mi
4:56 AM60 °FFog.No wind93%30.08 "Hg1 mi
3:56 AM60 °FFog.No wind93%30.07 "Hg2 mi
2:56 AM61 °FFog.No wind93%30.06 "Hg6 mi
1:56 AM63 °FFog.No wind90%30.05 "Hg6 mi
12:56 AM63 °FFog.No wind90%30.05 "Hg5 mi
11:56 PM
Sat, Jul 4
65 °FClear.No wind85%30.04 "Hg9 mi
10:56 PM67 °FClear.3 mph79%30.04 "Hg10 mi
9:56 PM69 °FClear.6 mph73%30.03 "Hg10 mi
8:56 PM69 °FClear.5 mph79%30.01 "Hg10 mi
Weather by CustomWeather, © 2015

See weather overviewHow to use our weather pages